Time,TemperatureF,DewpointF,PressureIn,WindDirection,WindDirectionDegrees,WindSpeedMPH,WindSpeedGustMPH,Humidity,HourlyPrecipIn,Conditions,Clouds,dailyrainin,SolarRadiationWatts/m^2,SoftwareType,DateUTC
2013-02-28 00:15:00,42.9,38.0,29.69,NW,313,0.0,1.0,84,0.00,,,0.00,0,weatherlink.com 1.10,2013-02-28 05:15:00,
2013-02-28 00:30:00,42.7,38.0,29.68,NW,313,0.0,0.0,84,0.00,,,0.00,0,weatherlink.com 1.10,2013-02-28 05:30:00,
2013-02-28 00:44:00,42.2,38.0,29.68,NW,313,0.0,1.0,85,0.00,,,0.00,0,weatherlink.com 1.10,2013-02-28 05:44:00,
2013-02-28 00:59:00,41.3,37.0,29.68,NW,313,0.0,0.0,86,0.00,,,0.00,0,weatherlink.com 1.10,2013-02-28 05:59:00,
2013-02-28 01:15:00,40.5,37.0,29.70,NW,313,0.0,1.0,88,0.00,,,0.00,0,weatherlink.com 1.10,2013-02-28 06:15:00,
2013-02-28 01:30:00,42.2,39.0,29.69,NW,317,1.0,7.0,87,0.00,,,0.00,0,weatherlink.com 1.10,2013-02-28 06:30:00,
2013-02-28 01:44:00,44.0,39.0,29.69,WNW,300,0.0,2.0,81,0.00,,,0.00,0,weatherlink.com 1.10,2013-02-28 06:44:00,
2013-02-28 02:01:00,44.5,39.0,29.69,SW,223,0.0,5.0,80,0.00,,,0.00,0,weatherlink.com 1.10,2013-02-28 07:01:00,
2013-02-28 02:15:00,45.0,39.0,29.69,WNW,294,0.0,4.0,78,0.00,,,0.00,0,weatherlink.com 1.10,2013-02-28 07:15:00,
2013-02-28 02:30:00,45.1,39.0,29.68,WSW,248,0.0,2.0,78,0.00,,,0.00,0,weatherlink.com 1.10,2013-02-28 07:30:00,
2013-02-28 02:45:00,44.9,38.0,29.68,West,264,0.0,3.0,78,0.00,,,0.00,0,weatherlink.com 1.10,2013-02-28 07:45:00,
2013-02-28 03:01:00,44.3,38.0,29.67,West,264,0.0,3.0,78,0.00,,,0.00,0,weatherlink.com 1.10,2013-02-28 08:01:00,
2013-02-28 03:15:00,43.2,37.0,29.67,West,264,0.0,1.0,80,0.00,,,0.00,0,weatherlink.com 1.10,2013-02-28 08:15:00,
2013-02-28 03:30:00,42.3,37.0,29.67,West,264,0.0,0.0,82,0.00,,,0.00,0,weatherlink.com 1.10,2013-02-28 08:30:00,
2013-02-28 03:46:00,41.1,37.0,29.67,West,264,0.0,0.0,84,0.00,,,0.00,0,weatherlink.com 1.10,2013-02-28 08:46:00,
2013-02-28 04:01:00,40.2,36.0,29.67,West,264,0.0,0.0,85,0.00,,,0.00,0,weatherlink.com 1.10,2013-02-28 09:01:00,
2013-02-28 04:15:00,39.5,36.0,29.68,West,264,0.0,1.0,88,0.00,,,0.00,0,weatherlink.com 1.10,2013-02-28 09:15:00,
2013-02-28 04:30:00,39.5,36.0,29.68,West,264,0.0,0.0,88,0.00,,,0.00,0,weatherlink.com 1.10,2013-02-28 09:30:00,
2013-02-28 04:46:00,38.9,36.0,29.69,West,264,0.0,1.0,89,0.00,,,0.00,0,weatherlink.com 1.10,2013-02-28 09:46:00,
2013-02-28 05:01:00,39.0,36.0,29.69,West,269,3.0,4.0,90,0.00,,,0.00,0,weatherlink.com 1.10,2013-02-28 10:01:00,
2013-02-28 05:16:00,39.8,36.0,29.70,SW,235,0.0,5.0,87,0.00,,,0.00,0,weatherlink.com 1.10,2013-02-28 10:16:00,
2013-02-28 05:30:00,40.0,36.0,29.70,WSW,237,0.0,3.0,84,0.00,,,0.00,0,weatherlink.com 1.10,2013-02-28 10:30:00,
2013-02-28 05:48:00,40.0,35.0,29.71,WSW,252,0.0,2.0,83,0.00,,,0.00,0,weatherlink.com 1.10,2013-02-28 10:48:00,
2013-02-28 06:01:00,40.0,35.0,29.71,WSW,252,0.0,0.0,82,0.00,,,0.00,0,weatherlink.com 1.10,2013-02-28 11:01:00,
2013-02-28 06:17:00,39.7,35.0,29.71,WSW,252,0.0,0.0,83,0.00,,,0.00,0,weatherlink.com 1.10,2013-02-28 11:17:00,
2013-02-28 06:31:00,39.5,35.0,29.72,WSW,252,0.0,0.0,84,0.00,,,0.00,0,weatherlink.com 1.10,2013-02-28 11:31:00,
2013-02-28 06:46:00,39.1,34.0,29.72,WSW,252,0.0,0.0,83,0.00,,,0.00,0,weatherlink.com 1.10,2013-02-28 11:46:00,
2013-02-28 07:02:00,38.4,34.0,29.73,WSW,252,0.0,0.0,85,0.00,,,0.00,14,weatherlink.com 1.10,2013-02-28 12:02:00,
2013-02-28 07:17:00,38.2,34.0,29.73,NW,319,0.0,2.0,84,0.00,,,0.00,23,weatherlink.com 1.10,2013-02-28 12:17:00,
2013-02-28 07:31:00,38.6,34.0,29.73,NW,319,0.0,0.0,84,0.00,,,0.00,40,weatherlink.com 1.10,2013-02-28 12:31:00,
2013-02-28 07:48:00,38.8,34.0,29.73,NW,319,0.0,0.0,83,0.00,,,0.00,70,weatherlink.com 1.10,2013-02-28 12:48:00,
2013-02-28 08:02:00,39.4,35.0,29.73,NW,319,0.0,0.0,84,0.00,,,0.00,70,weatherlink.com 1.10,2013-02-28 13:02:00,
2013-02-28 08:16:00,40.1,36.0,29.74,NW,319,0.0,0.0,84,0.00,,,0.00,62,weatherlink.com 1.10,2013-02-28 13:16:00,
2013-02-28 08:33:00,40.5,34.0,29.74,NW,319,0.0,0.0,79,0.00,,,0.00,70,weatherlink.com 1.10,2013-02-28 13:33:00,
2013-02-28 08:48:00,40.9,34.0,29.74,NW,319,0.0,2.0,75,0.00,,,0.00,86,weatherlink.com 1.10,2013-02-28 13:48:00,
2013-02-28 09:02:00,41.3,35.0,29.74,NW,319,0.0,2.0,77,0.00,,,0.00,91,weatherlink.com 1.10,2013-02-28 14:02:00,
2013-02-28 09:17:00,41.7,34.0,29.74,WSW,242,0.0,2.0,75,0.00,,,0.00,123,weatherlink.com 1.10,2013-02-28 14:17:00,
2013-02-28 09:33:00,42.0,34.0,29.74,WNW,284,0.0,2.0,73,0.00,,,0.00,144,weatherlink.com 1.10,2013-02-28 14:33:00,
2013-02-28 09:47:00,42.4,34.0,29.74,SW,236,0.0,4.0,71,0.00,,,0.00,162,weatherlink.com 1.10,2013-02-28 14:47:00,
2013-02-28 10:04:00,43.0,34.0,29.75,WSW,256,3.0,5.0,70,0.00,,,0.00,193,weatherlink.com 1.10,2013-02-28 15:04:00,
2013-02-28 10:33:00,44.7,33.0,29.74,NNW,330,0.0,6.0,64,0.00,,,0.00,362,weatherlink.com 1.10,2013-02-28 15:33:00,
2013-02-28 10:49:00,45.2,33.0,29.74,NW,310,3.0,11.0,62,0.00,,,0.00,262,weatherlink.com 1.10,2013-02-28 15:49:00,
2013-02-28 11:03:00,45.4,32.0,29.74,North,350,3.0,9.0,61,0.00,,,0.00,243,weatherlink.com 1.10,2013-02-28 16:03:00,
2013-02-28 11:33:00,46.1,32.0,29.73,NNE,22,3.0,10.0,58,0.00,,,0.00,360,weatherlink.com 1.10,2013-02-28 16:33:00,
2013-02-28 11:48:00,46.7,32.0,29.73,WSW,252,4.0,13.0,57,0.00,,,0.00,223,weatherlink.com 1.10,2013-02-28 16:48:00,
2013-02-28 12:03:00,46.7,31.0,29.73,West,267,4.0,10.0,55,0.00,,,0.00,202,weatherlink.com 1.10,2013-02-28 17:03:00,
2013-02-28 12:18:00,46.7,29.0,29.73,NW,309,4.0,9.0,51,0.00,,,0.00,322,weatherlink.com 1.10,2013-02-28 17:18:00,
2013-02-28 12:33:00,47.1,30.0,29.72,West,273,2.0,11.0,51,0.00,,,0.00,241,weatherlink.com 1.10,2013-02-28 17:33:00,
2013-02-28 12:48:00,47.3,29.0,29.71,NW,315,4.0,11.0,49,0.00,,,0.00,341,weatherlink.com 1.10,2013-02-28 17:48:00,
2013-02-28 13:03:00,47.1,30.0,29.71,WNW,293,4.0,12.0,51,0.00,,,0.00,97,weatherlink.com 1.10,2013-02-28 18:03:00,
2013-02-28 13:18:00,45.9,29.0,29.72,NNW,331,3.0,12.0,53,0.00,,,0.00,206,weatherlink.com 1.10,2013-02-28 18:18:00,
2013-02-28 13:33:00,46.1,31.0,29.72,NNW,327,0.0,8.0,55,0.00,,,0.00,213,weatherlink.com 1.10,2013-02-28 18:33:00,
2013-02-28 13:48:00,46.2,29.0,29.72,West,259,1.0,13.0,52,0.00,,,0.00,220,weatherlink.com 1.10,2013-02-28 18:48:00,
2013-02-28 14:03:00,46.0,30.0,29.71,WNW,302,5.0,10.0,54,0.00,,,0.00,113,weatherlink.com 1.10,2013-02-28 19:03:00,
2013-02-28 14:18:00,45.9,30.0,29.71,WNW,292,3.0,5.0,54,0.00,,,0.00,107,weatherlink.com 1.10,2013-02-28 19:18:00,
2013-02-28 14:33:00,46.0,30.0,29.71,West,272,7.0,7.0,54,0.00,,,0.00,118,weatherlink.com 1.10,2013-02-28 19:33:00,
2013-02-28 14:48:00,47.2,31.0,29.71,West,281,6.0,13.0,53,0.00,,,0.00,297,weatherlink.com 1.10,2013-02-28 19:48:00,
2013-02-28 15:03:00,48.4,29.0,29.71,NW,309,3.0,9.0,48,0.00,,,0.00,134,weatherlink.com 1.10,2013-02-28 20:03:00,
2013-02-28 15:18:00,47.4,28.0,29.71,WNW,288,3.0,15.0,48,0.00,,,0.00,230,weatherlink.com 1.10,2013-02-28 20:18:00,
2013-02-28 15:33:00,47.2,29.0,29.72,WNW,286,3.0,17.0,49,0.00,,,0.00,155,weatherlink.com 1.10,2013-02-28 20:33:00,
2013-02-28 15:48:00,46.9,28.0,29.73,WNW,296,2.0,13.0,49,0.00,,,0.00,109,weatherlink.com 1.10,2013-02-28 20:48:00,
2013-02-28 16:03:00,46.7,28.0,29.73,NW,321,2.0,9.0,49,0.00,,,0.00,127,weatherlink.com 1.10,2013-02-28 21:03:00,
2013-02-28 16:19:00,46.6,29.0,29.73,West,269,7.0,15.0,50,0.00,,,0.00,70,weatherlink.com 1.10,2013-02-28 21:19:00,
2013-02-28 16:33:00,46.3,28.0,29.73,WNW,294,3.0,15.0,50,0.00,,,0.00,72,weatherlink.com 1.10,2013-02-28 21:33:00,
2013-02-28 16:48:00,46.2,28.0,29.73,NNW,336,7.0,14.0,50,0.00,,,0.00,54,weatherlink.com 1.10,2013-02-28 21:48:00,
2013-02-28 17:03:00,46.7,28.0,29.74,SW,234,6.0,9.0,49,0.00,,,0.00,169,weatherlink.com 1.10,2013-02-28 22:03:00,
2013-02-28 17:18:00,46.4,28.0,29.74,NW,309,3.0,9.0,50,0.00,,,0.00,37,weatherlink.com 1.10,2013-02-28 22:18:00,
2013-02-28 17:33:00,46.3,28.0,29.75,West,261,6.0,12.0,50,0.00,,,0.00,104,weatherlink.com 1.10,2013-02-28 22:33:00,
2013-02-28 17:48:00,46.1,28.0,29.75,West,270,2.0,10.0,50,0.00,,,0.00,39,weatherlink.com 1.10,2013-02-28 22:48:00,
2013-02-28 18:03:00,45.2,28.0,29.75,West,268,3.0,8.0,51,0.00,,,0.00,9,weatherlink.com 1.10,2013-02-28 23:03:00,
2013-02-28 18:18:00,44.5,28.0,29.75,SW,223,4.0,7.0,53,0.00,,,0.00,0,weatherlink.com 1.10,2013-02-28 23:18:00,
2013-02-28 18:33:00,44.0,28.0,29.77,West,268,1.0,4.0,54,0.00,,,0.00,0,weatherlink.com 1.10,2013-02-28 23:33:00,
2013-02-28 18:48:00,43.6,28.0,29.77,West,266,1.0,3.0,55,0.00,,,0.00,0,weatherlink.com 1.10,2013-02-28 23:48:00,
2013-02-28 19:03:00,43.1,28.0,29.78,WSW,257,0.0,4.0,56,0.00,,,0.00,0,weatherlink.com 1.10,2013-03-01 00:03:00,
2013-02-28 19:18:00,42.5,28.0,29.78,WSW,253,0.0,6.0,57,0.00,,,0.00,0,weatherlink.com 1.10,2013-03-01 00:18:00,
2013-02-28 19:33:00,42.2,28.0,29.79,West,263,0.0,1.0,58,0.00,,,0.00,0,weatherlink.com 1.10,2013-03-01 00:33:00,
2013-02-28 19:48:00,41.5,28.0,29.79,West,263,0.0,2.0,59,0.00,,,0.00,0,weatherlink.com 1.10,2013-03-01 00:48:00,
2013-02-28 20:03:00,40.8,28.0,29.79,WNW,286,0.0,4.0,61,0.00,,,0.00,0,weatherlink.com 1.10,2013-03-01 01:03:00,
2013-02-28 20:18:00,40.0,28.0,29.80,WNW,286,0.0,1.0,62,0.00,,,0.00,0,weatherlink.com 1.10,2013-03-01 01:18:00,
2013-02-28 20:33:00,39.5,28.0,29.80,NW,314,0.0,3.0,63,0.00,,,0.00,0,weatherlink.com 1.10,2013-03-01 01:33:00,
2013-02-28 20:48:00,39.5,28.0,29.81,NW,313,2.0,4.0,63,0.00,,,0.00,0,weatherlink.com 1.10,2013-03-01 01:48:00,
2013-02-28 21:03:00,39.3,28.0,29.81,NNW,329,0.0,4.0,64,0.00,,,0.00,0,weatherlink.com 1.10,2013-03-01 02:03:00,
2013-02-28 21:18:00,38.7,28.0,29.81,NNW,329,0.0,0.0,65,0.00,,,0.00,0,weatherlink.com 1.10,2013-03-01 02:18:00,
2013-02-28 21:33:00,37.6,28.0,29.82,NNW,329,0.0,0.0,68,0.00,,,0.00,0,weatherlink.com 1.10,2013-03-01 02:33:00,
2013-02-28 21:48:00,36.3,28.0,29.83,NNW,329,0.0,0.0,71,0.00,,,0.00,0,weatherlink.com 1.10,2013-03-01 02:48:00,
2013-02-28 22:03:00,35.5,28.0,29.83,NNW,329,0.0,0.0,73,0.00,,,0.00,0,weatherlink.com 1.10,2013-03-01 03:03:00,
2013-02-28 22:18:00,34.4,27.0,29.83,NNW,329,0.0,0.0,74,0.00,,,0.00,0,weatherlink.com 1.10,2013-03-01 03:18:00,
2013-02-28 22:34:00,33.9,27.0,29.83,NNW,329,0.0,0.0,77,0.00,,,0.00,0,weatherlink.com 1.10,2013-03-01 03:34:00,
2013-02-28 22:48:00,33.5,27.0,29.83,NNW,329,0.0,0.0,76,0.00,,,0.00,0,weatherlink.com 1.10,2013-03-01 03:48:00,
2013-02-28 23:04:00,33.4,27.0,29.83,NNW,330,0.0,0.0,77,0.00,,,0.00,0,weatherlink.com 1.10,2013-03-01 04:04:00,
2013-02-28 23:19:00,33.9,27.0,29.83,NNW,330,0.0,0.0,76,0.00,,,0.00,0,weatherlink.com 1.10,2013-03-01 04:19:00,
2013-02-28 23:34:00,34.5,27.0,29.84,West,267,0.0,2.0,74,0.00,,,0.00,0,weatherlink.com 1.10,2013-03-01 04:34:00,
2013-02-28 23:49:00,35.3,27.0,29.83,NW,312,0.0,3.0,72,0.00,,,0.00,0,weatherlink.com 1.10,2013-03-01 04:49:00,